Skip Page Navigation
NASA JPL Caltech
NASA Logo - Jet Propulsion Laboratory + View the NASA Portal
+ Near-Earth Object (NEO) Program
Search JPL
JPL Home Earth Solar System Stars & Galaxies Technology
JPL Solar System Dynamics
BODIES ORBITS EPHEMERIDES TOOLS PHYSICAL DATA DISCOVERY FAQ SITE MAP
JPL Small-Body Database Browser
Search: [ help ]  
15328 (1993 RJ9)
Classification: Main-belt Asteroid          SPK-ID: 2015328
Ephemeris | Orbit Diagram | Orbital Elements | Physical Parameters | Discovery Circumstances ]

[ show orbit diagram ]
Orbital Elements at Epoch 2456800.5 (2014-May-23.0) TDB
Reference: JPL 7 (heliocentric ecliptic J2000)
 Element Value Uncertainty (1-sigma)   Units 
e .1855705398287343 4.7628e-08  
a 2.424226953059146 1.8829e-08 AU
q 1.974361848712593 1.128e-07 AU
i 1.206261910153805 5.1416e-06 deg
node 254.5731100101082 0.00030438 deg
peri 21.93151422123605 0.00030512 deg
M 231.5059343039169 2.3961e-05 deg
tp 2457292.583621521212
(2015-Sep-27.08362152)
9.4062e-05 JED
period 1378.663697719984
3.77
1.6063e-05
4.398e-08
d
yr
n .2611224191913976 3.0423e-09 deg/d
Q 2.874092057405699 2.2324e-08 AU
  Orbit Determination Parameters
   # obs. used (total)      848  
   data-arc span      8048 days (22.03 yr)  
   first obs. used      1992-03-01  
   last obs. used      2014-03-14  
   planetary ephem.      DE431  
   SB-pert. ephem.      SB431-BIG16  
   condition code      0  
   fit RMS      .5579  
   data source      ORB  
   producer      Otto Matic  
   solution date      2014-Apr-17 14:07:17  

Additional Information
 Earth MOID = .95757 AU 
 T_jup = 3.488 
[ show covariance matrix ]

Ephemeris | Orbit Diagram | Orbital Elements | Physical Parameters | Discovery Circumstances ]

Physical Parameter Table
Parameter Symbol Value Units Sigma Reference Notes
absolute magnitude H 14.9 mag n/a MPO253470  

15328 (1993 RJ9)          Discovered 1993-Sep-14 by Debehogne, H., Elst, E. W. at La Silla (809)
Reference: 20000621/Numbers.arcLast Updated: 2004-04-19

Alternate Designations
 1993 RJ9 = 1992 EL15 = 1998 XE21 
Ephemeris | Orbit Diagram | Orbital Elements | Physical Parameters | Discovery Circumstances ]
ABOUT SSD CREDITS/AWARDS PRIVACY/COPYRIGHT GLOSSARY LINKS
FirstGov 2014-Apr-23 14:30 UT
(server date/time)  
NASA Home Page
Site Manager:   Donald K. Yeomans
Webmaster  Alan B. Chamberlin